QPF
0.00 0.00 0.00 0.00 0.00 0.00 0.00 0.00 0.00 0.00 0.00 0.00 0.00 0.00 0.00 0.07 0.09 0.11 0.09 0.08 0.05 0.03 0.04 0.05 0.02 0.00 0.00 0.00 0.00 0.00 0.00 0.01 0.01 0.00 0.00 0.00 0.00 0.00 0.00 0.00 0.00 0.00 0.01
0.00 0.00 0.00 0.00 0.00 0.00 0.00 0.00 0.00 0.00 0.00 0.00 0.00 0.00 0.00 0.03 0.10 0.10 0.08 0.04 0.04 0.01 0.02 0.02 0.02 0.04 0.00 0.00 0.00 0.00 0.01 0.01 0.01 0.00 0.00 0.00 0.00 0.00 0.00 0.00 0.00 0.00 0.00
0.00 0.00 0.00 0.00 0.00 0.00 0.00 0.00 0.00 0.00 0.00 0.00 0.00 0.00 0.00 0.00 0.01 0.01 0.01 0.00 0.01 0.01 0.02 0.04 0.03 0.05 0.01 0.00 0.00 0.01 0.02 0.02 0.01 0.01 0.00 0.01 0.00 0.00 0.00 0.00 0.00 0.00 0.00
0.00 0.00 0.00 0.00 0.00 0.00 0.00 0.00 0.00 0.00 0.00 0.00 0.00 0.00 0.01 0.04 0.07 0.07 0.06 0.08 0.05 0.02 0.01 0.03 0.03 0.04 0.03 0.02 0.01 0.02 0.02 0.03 0.02 0.01 0.01 0.01 0.01 0.01 0.01 0.00 0.00 0.02 0.03
0.00 0.00 0.00 0.00 0.00 0.00 0.00 0.00 0.00 0.00 0.00 0.00 0.00 0.00 0.02 0.02 0.03 0.02 0.01 0.04 0.04 0.03 0.01 0.00 0.00 0.01 0.01 0.01 0.01 0.02 0.02 0.01 0.02 0.01 0.01 0.02 0.01 0.00 0.00 0.01 0.01 0.02 0.03
0.00 0.00 0.00 0.00 0.00 0.00 0.00 0.00 0.00 0.00 0.00 0.00 0.00 0.00 0.02 0.04 0.05 0.07 0.06 0.02 0.01 0.01 0.01 0.00 0.01 0.01 0.00 0.00 0.02 0.05 0.06 0.02 0.00 0.01 0.01 0.01 0.01 0.01 0.02 0.01 0.01 0.01 0.00
0.00 0.00 0.00 0.00 0.00 0.00 0.01 0.02 0.01 0.01 0.01 0.00 0.00 0.00 0.00 0.00 0.00 0.01 0.01 0.01 0.01 0.00 0.00 0.01 0.01 0.00 0.00 0.00 0.02 0.07 0.03 0.06 0.02 0.02 0.01 0.01 0.02 0.01 0.03 0.03 0.02 0.01 0.01
0.00 0.00 0.00 0.00 0.00 0.00 0.01 0.03 0.02 0.02 0.00 0.00 0.00 0.00 0.00 0.00 0.00 0.00 0.00 0.00 0.00 0.00 0.00 0.01 0.00 0.00 0.00 0.01 0.04 0.02 0.00 0.01 0.01 0.00 0.01 0.01 0.02 0.01 0.01 0.02 0.02 0.01 0.01
0.00 0.00 0.00 0.00 0.00 0.00 0.00 0.02 0.01 0.00 0.00 0.00 0.00 0.00 0.00 0.00 0.00 0.00 0.00 0.00 0.00 0.00 0.00 0.00 0.00 0.00 0.01 0.05 0.04 0.03 0.01 0.01 0.02 0.06 0.05 0.02 0.01 0.00 0.00 0.01 0.01 0.00 0.00
0.00 0.00 0.00 0.00 0.00 0.00 0.00 0.00 0.00 0.00 0.00 0.00 0.00 0.00 0.00 0.00 0.00 0.00 0.00 0.00 0.00 0.00 0.00 0.00 0.00 0.01 0.01 0.02 0.07 0.01 0.04 0.03 0.03 0.05 0.04 0.01 0.00 0.00 0.00 0.00 0.00 0.00 0.00
0.00 0.00 0.00 0.00 0.00 0.00 0.00 0.00 0.00 0.00 0.00 0.00 0.00 0.00 0.00 0.00 0.00 0.00 0.00 0.00 0.00 0.00 0.02 0.01 0.02 0.04 0.01 0.02 0.07 0.01 0.05 0.04 0.04 0.00 0.00 0.00 0.00 0.00 0.00 0.00 0.00 0.00 0.00
0.00 0.00 0.00 0.00 0.00 0.00 0.00 0.00 0.00 0.00 0.00 0.00 0.00 0.00 0.01 0.01 0.00 0.00 0.01 0.00 0.00 0.01 0.03 0.02 0.00 0.01 0.00 0.01 0.15 0.20 0.23 0.07 0.01 0.01 0.00 0.00 0.00 0.00 0.00 0.00 0.00 0.00 0.00
0.00 0.00 0.00 0.00 0.00 0.00 0.00 0.00 0.00 0.00 0.00 0.00 0.00 0.01 0.01 0.06 0.05 0.02 0.01 0.00 0.02 0.05 0.07 0.02 0.01 0.02 0.04 0.01 0.11 0.29 0.16 0.01 0.02 0.11 0.09 0.03 0.00 0.01 0.00 0.01 0.01 0.00 0.00
0.00 0.00 0.00 0.00 0.00 0.00 0.00 0.00 0.00 0.00 0.00 0.00 0.00 0.00 0.00 0.03 0.04 0.01 0.02 0.02 0.02 0.04 0.05 0.04 0.02 0.01 0.01 0.09 0.10 0.12 0.19 0.02 0.01 0.03 0.03 0.00 0.01 0.01 0.00 0.00 0.01 0.00 0.00
0.00 0.00 0.00 0.00 0.00 0.00 0.00 0.00 0.00 0.01 0.01 0.01 0.01 0.01 0.01 0.01 0.01 0.00 0.00 0.02 0.04 0.07 0.06 0.01 0.02 0.05 0.03 0.09 0.08 0.08 0.17 0.03 0.01 0.00 0.00 0.00 0.01 0.02 0.01 0.00 0.00 0.01 0.01
0.00 0.00 0.00 0.00 0.00 0.00 0.00 0.00 0.00 0.00 0.00 0.00 0.00 0.00 0.00 0.00 0.00 0.00 0.00 0.00 0.02 0.09 0.08 0.05 0.05 0.05 0.10 0.19 0.12 0.05 0.05 0.01 0.01 0.00 0.00 0.00 0.00 0.02 0.02 0.02 0.00 0.00 0.03
0.00 0.00 0.00 0.00 0.00 0.00 0.00 0.00 0.00 0.00 0.00 0.00 0.00 0.00 0.00 0.01 0.01 0.04 0.04 0.02 0.03 0.09 0.06 0.05 0.02 0.01 0.02 0.08 0.07 0.02 0.02 0.01 0.01 0.01 0.00 0.00 0.00 0.02 0.03 0.02 0.01 0.00 0.05
0.00 0.00 0.00 0.00 0.00 0.00 0.00 0.00 0.00 0.00 0.00 0.00 0.00 0.00 0.00 0.00 0.00 0.02 0.02 0.03 0.07 0.06 0.01 0.00 0.01 0.01 0.02 0.05 0.03 0.01 0.01 0.00 0.01 0.01 0.00 0.01 0.00 0.01 0.02 0.01 0.00 0.01 0.04
0.00 0.00 0.00 0.00 0.00 0.00 0.00 0.00 0.00 0.00 0.00 0.00 0.00 0.00 0.00 0.00 0.00 0.00 0.02 0.04 0.04 0.03 0.02 0.03 0.04 0.04 0.06 0.07 0.10 0.07 0.04 0.02 0.01 0.02 0.01 0.01 0.01 0.02 0.04 0.02 0.01 0.04 0.04
0.00 0.00 0.00 0.00 0.00 0.00 0.00 0.00 0.00 0.00 0.00 0.00 0.00 0.00 0.00 0.00 0.00 0.00 0.00 0.00 0.02 0.05 0.05 0.02 0.01 0.03 0.06 0.06 0.09 0.04 0.06 0.05 0.04 0.02 0.01 0.01 0.02 0.03 0.04 0.03 0.02 0.01 0.02
0.00 0.00 0.00 0.00 0.00 0.00 0.00 0.00 0.00 0.00 0.00 0.00 0.00 0.00 0.00 0.00 0.00 0.00 0.00 0.00 0.00 0.00 0.02 0.02 0.00 0.01 0.03 0.04 0.06 0.07 0.05 0.03 0.03 0.02 0.02 0.01 0.01 0.03 0.02 0.02 0.00 0.00 0.00
0.00 0.00 0.00 0.00 0.00 0.00 0.00 0.00 0.00 0.00 0.00 0.00 0.00 0.00 0.00 0.00 0.00 0.00 0.00 0.00 0.00 0.00 0.00 0.00 0.00 0.00 0.01 0.03 0.03 0.03 0.04 0.05 0.05 0.03 0.04 0.03 0.01 0.00 0.01 0.02 0.01 0.00 0.01
0.00 0.00 0.00 0.00 0.00 0.00 0.00 0.00 0.00 0.00 0.00 0.00 0.00 0.00 0.00 0.00 0.00 0.00 0.00 0.00 0.00 0.00 0.00 0.00 0.00 0.00 0.00 0.00 0.00 0.00 0.01 0.01 0.03 0.05 0.03 0.04 0.03 0.02 0.02 0.02 0.02 0.01 0.01
0.00 0.00 0.00 0.00 0.00 0.00 0.00 0.00 0.00 0.00 0.00 0.00 0.00 0.00 0.00 0.00 0.00 0.00 0.00 0.00 0.00 0.00 0.00 0.00 0.00 0.00 0.00 0.00 0.00 0.00 0.00 0.00 0.00 0.03 0.05 0.04 0.04 0.05 0.03 0.02 0.02 0.02 0.01
0.00 0.00 0.00 0.00 0.00 0.00 0.00 0.00 0.00 0.00 0.00 0.00 0.00 0.00 0.00 0.00 0.00 0.00 0.00 0.00 0.00 0.00 0.00 0.00 0.00 0.00 0.00 0.00 0.00 0.00 0.00 0.00 0.00 0.00 0.01 0.04 0.03 0.03 0.04 0.04 0.04 0.04 0.02
0.00 0.00 0.00 0.00 0.00 0.00 0.00 0.00 0.00 0.00 0.00 0.00 0.00 0.00 0.00 0.00 0.00 0.00 0.00 0.00 0.00 0.00 0.00 0.00 0.00 0.00 0.00 0.00 0.00 0.00 0.00 0.00 0.02 0.02 0.01 0.02 0.04 0.03 0.04 0.02 0.01 0.01 0.03
MSLP
1008.59 1008.54 1008.53 1008.41 1008.28 1008.27 1008.24 1008.10 1007.96 1007.87 1007.89 1007.79 1007.62 1007.42 1007.08 1006.89 1006.66 1006.49 1006.72 1006.65 1006.91 1007.64 1008.08 1008.78 1008.99 1008.74 1008.49 1008.50 1008.95 1008.70 1009.05 1009.28 1008.60 1008.02 1007.89 1007.38 1007.48 1007.91 1007.26 1007.24 1007.68 1007.82 1007.72
1008.92 1008.73 1008.64 1008.60 1008.50 1008.28 1008.09 1007.87 1007.74 1007.42 1007.16 1006.96 1006.73 1006.60 1006.35 1006.14 1006.03 1005.68 1005.57 1005.75 1005.78 1006.31 1006.46 1007.16 1007.70 1007.64 1007.72 1007.72 1007.47 1007.62 1008.00 1008.03 1008.36 1007.66 1007.42 1007.33 1007.02 1006.91 1007.11 1006.95 1006.97 1006.91 1007.02
1009.01 1008.88 1008.75 1008.58 1008.44 1008.23 1007.99 1007.72 1007.44 1007.10 1006.49 1006.09 1005.94 1005.73 1005.40 1004.99 1004.64 1004.48 1004.32 1004.60 1004.91 1005.03 1005.24 1005.90 1006.27 1006.54 1006.62 1006.60 1006.76 1006.64 1006.91 1007.10 1007.42 1007.28 1006.55 1006.84 1006.72 1006.24 1006.27 1006.64 1006.60 1006.65 1006.67
1009.09 1008.85 1008.66 1008.47 1008.23 1007.95 1007.73 1007.35 1006.98 1006.56 1006.03 1005.60 1005.17 1004.90 1004.64 1004.44 1004.34 1004.04 1003.94 1003.87 1004.26 1004.38 1004.67 1004.82 1005.02 1005.36 1005.21 1005.83 1005.90 1005.70 1006.18 1006.50 1006.59 1006.44 1006.05 1006.02 1006.18 1006.19 1006.33 1006.36 1006.32 1006.36 1006.51
1009.09 1008.84 1008.58 1008.30 1008.07 1007.68 1007.28 1006.87 1006.55 1006.19 1005.83 1005.39 1004.87 1004.31 1004.00 1003.81 1003.61 1003.82 1003.89 1003.56 1003.46 1003.64 1003.80 1004.00 1004.04 1003.44 1003.95 1004.32 1004.41 1004.74 1005.50 1005.70 1005.66 1005.60 1005.41 1005.42 1005.42 1005.44 1005.68 1005.83 1005.92 1005.96 1006.14
1009.34 1008.99 1008.53 1008.02 1007.60 1007.20 1006.75 1006.32 1005.98 1005.58 1005.30 1005.05 1004.64 1004.19 1003.71 1003.18 1002.92 1003.24 1003.55 1003.20 1002.98 1002.99 1002.94 1002.85 1002.62 1002.85 1003.24 1003.26 1003.55 1004.07 1004.48 1004.66 1004.51 1004.68 1004.58 1004.49 1004.57 1004.66 1005.01 1005.01 1005.26 1005.55 1005.87
1009.41 1009.10 1008.65 1008.20 1007.66 1007.04 1006.45 1005.86 1005.41 1004.98 1004.52 1004.18 1003.78 1003.40 1003.12 1002.81 1002.63 1002.54 1002.63 1002.56 1002.38 1002.25 1002.14 1001.74 1001.52 1001.61 1001.92 1002.15 1002.53 1003.15 1003.59 1003.80 1003.79 1003.67 1003.69 1003.67 1003.64 1003.84 1004.27 1004.37 1004.78 1004.92 1005.10
1009.54 1009.28 1008.88 1008.30 1007.67 1007.00 1006.35 1005.69 1005.10 1004.74 1004.28 1003.92 1003.57 1003.08 1002.52 1001.88 1001.82 1001.94 1001.88 1001.62 1001.30 1001.10 1000.84 1000.70 1000.70 1000.60 1000.70 1001.06 1001.42 1001.96 1002.32 1002.40 1002.95 1003.16 1002.91 1002.73 1003.08 1003.52 1003.71 1003.92 1004.07 1004.45 1005.07
1009.67 1009.35 1008.76 1008.17 1007.56 1006.89 1006.17 1005.58 1004.94 1004.45 1003.88 1003.30 1002.90 1002.50 1002.09 1001.33 1001.12 1001.32 1001.59 1001.02 1000.48 1000.14 999.86 999.89 999.77 999.64 999.95 1000.71 1001.32 1001.43 1001.49 1001.69 1001.81 1002.50 1002.71 1002.92 1003.06 1003.32 1003.41 1003.60 1003.79 1004.31 1004.84
1009.73 1009.29 1008.77 1008.22 1007.60 1006.87 1006.23 1005.62 1004.80 1004.22 1003.63 1003.06 1002.41 1002.01 1001.52 1000.89 1000.48 1000.56 1000.78 1000.54 1000.07 999.68 999.32 998.94 999.28 999.22 999.61 1000.21 1000.73 1000.84 1001.07 1000.80 1001.34 1002.12 1002.50 1002.90 1003.16 1003.25 1003.57 1003.56 1003.74 1003.75 1004.30
1009.72 1009.27 1008.71 1008.11 1007.53 1006.71 1006.24 1005.68 1004.87 1004.13 1003.58 1003.01 1002.44 1001.76 1001.08 1000.54 999.86 999.89 1000.04 1000.06 999.67 999.32 998.94 998.51 998.35 998.90 999.54 999.97 1000.06 999.94 999.67 1000.23 1001.42 1001.67 1002.04 1002.64 1003.07 1003.34 1003.34 1003.50 1003.63 1003.58 1003.96
1009.76 1009.32 1008.83 1008.18 1007.52 1006.87 1006.46 1005.74 1005.05 1004.40 1003.69 1002.99 1002.18 1001.17 1000.38 999.77 999.44 999.13 999.13 999.25 999.00 998.73 998.26 997.96 997.57 998.34 998.94 999.30 999.58 999.35 999.96 999.96 1000.63 1001.27 1001.90 1002.37 1002.79 1003.10 1003.30 1003.52 1003.74 1003.91 1003.93
1009.70 1009.19 1008.63 1008.10 1007.62 1006.92 1006.22 1005.53 1004.84 1004.38 1003.71 1003.02 1002.34 1001.25 1000.14 999.36 998.48 998.61 998.36 998.40 998.38 998.16 997.78 997.64 997.87 998.21 998.51 998.81 998.99 999.52 999.79 999.81 1000.32 1001.07 1001.49 1002.14 1002.46 1002.97 1003.21 1003.54 1003.88 1004.10 1004.39
1009.58 1009.12 1008.68 1008.29 1007.57 1006.81 1006.18 1005.53 1004.89 1004.29 1003.74 1003.26 1002.54 1001.58 1000.29 999.34 998.56 998.30 998.19 998.07 997.76 997.69 997.60 997.44 997.50 997.80 998.11 998.22 998.75 999.11 999.15 999.41 1000.08 1000.93 1001.51 1001.79 1002.50 1002.70 1002.90 1003.46 1003.81 1003.95 1004.56
1009.80 1009.36 1008.81 1008.30 1007.74 1007.08 1006.47 1005.92 1005.15 1004.42 1004.48 1004.08 1003.68 1002.82 1001.48 1000.56 999.70 999.56 999.28 998.51 997.82 997.42 997.33 997.28 997.44 997.57 997.66 997.72 998.06 998.52 998.80 999.02 999.86 1000.61 1001.18 1001.61 1002.24 1002.54 1002.62 1003.01 1003.54 1003.93 1004.30
1010.10 1009.61 1009.10 1008.60 1008.19 1007.61 1006.93 1006.08 1005.50 1005.19 1004.71 1004.20 1003.86 1003.47 1001.88 1001.15 1000.14 999.38 998.82 998.34 998.00 997.50 997.31 997.14 997.26 997.28 997.30 997.66 997.89 998.19 998.68 999.04 999.52 1000.06 1000.76 1001.30 1001.78 1002.07 1002.47 1002.81 1003.05 1003.51 1003.71
1010.36 1010.02 1009.42 1009.10 1008.76 1008.31 1007.56 1006.84 1006.05 1005.10 1004.94 1004.44 1003.88 1003.15 1002.22 1001.31 999.98 999.18 998.24 997.79 997.63 997.32 997.12 997.06 997.18 997.28 997.40 997.66 998.10 998.18 998.50 998.70 999.46 999.77 1000.38 1001.05 1001.42 1001.81 1002.39 1002.64 1002.85 1002.90 1003.52
1010.62 1010.38 1009.62 1009.50 1009.28 1008.85 1008.32 1007.72 1007.11 1006.32 1005.42 1004.56 1003.91 1003.61 1002.60 1001.42 1000.62 999.72 998.58 997.98 997.69 997.47 997.26 997.14 997.13 997.24 997.46 997.72 997.95 998.07 997.89 998.96 999.36 999.77 1000.35 1000.73 1000.86 1001.24 1001.83 1002.12 1002.34 1002.44 1002.94
1010.72 1010.60 1010.25 1010.00 1009.74 1009.36 1008.79 1008.20 1007.69 1007.06 1006.43 1005.76 1004.86 1003.81 1003.04 1002.14 1001.48 1000.61 999.99 999.38 998.66 998.32 997.72 997.39 997.24 997.28 997.45 997.60 997.76 998.00 998.24 998.57 998.93 999.38 999.76 1000.12 1000.46 1000.68 1000.96 1001.47 1001.67 1002.21 1002.48
1011.02 1010.99 1010.60 1010.28 1010.00 1009.49 1009.02 1008.58 1008.09 1007.62 1007.18 1006.66 1006.14 1005.70 1004.70 1003.43 1002.58 1002.10 1001.95 1001.41 1000.93 1000.44 999.83 998.80 997.94 997.58 997.52 997.60 997.65 997.92 998.10 998.12 998.54 998.98 998.99 999.23 999.88 999.95 1000.02 1000.29 1000.83 1001.32 1001.79
1011.24 1011.01 1010.86 1010.23 1009.92 1009.73 1009.40 1008.92 1008.70 1008.30 1007.98 1007.56 1007.24 1006.90 1006.18 1005.27 1004.67 1004.12 1003.65 1002.91 1002.55 1002.01 1001.46 1000.59 1000.00 999.26 998.16 997.94 997.95 997.98 998.06 998.07 998.35 998.23 998.46 999.00 999.37 999.56 999.44 999.63 999.86 1000.37 1000.83
1011.51 1011.28 1011.02 1010.74 1010.40 1010.06 1009.64 1009.14 1008.68 1008.34 1008.09 1008.02 1007.77 1007.45 1006.97 1006.23 1005.74 1005.27 1004.85 1004.31 1003.78 1003.20 1002.98 1002.38 1001.20 1001.05 1000.59 999.86 999.33 998.53 998.20 998.39 998.10 997.66 997.76 998.41 998.46 998.89 999.16 999.03 999.22 999.52 999.98
1011.64 1011.43 1011.20 1011.01 1010.82 1010.46 1009.94 1009.60 1009.28 1008.94 1008.45 1008.11 1007.80 1007.51 1007.24 1007.07 1006.60 1006.11 1005.79 1005.53 1005.04 1004.59 1004.10 1003.56 1002.94 1002.15 1001.69 1001.21 1000.79 1000.40 1000.00 999.72 999.23 997.60 997.58 997.74 997.87 998.15 998.39 998.56 998.66 999.06 999.48
1011.64 1011.50 1011.39 1011.18 1011.06 1010.68 1010.49 1010.06 1009.72 1009.44 1009.05 1008.60 1008.28 1008.01 1007.69 1007.42 1007.11 1006.85 1006.55 1006.12 1005.68 1005.19 1004.93 1004.66 1004.13 1003.67 1002.92 1002.60 1002.13 1001.63 1001.02 1000.51 999.88 999.06 998.01 997.52 997.66 997.83 997.91 998.06 998.38 998.80 999.02
1011.56 1011.51 1011.36 1011.24 1011.08 1010.85 1010.54 1010.27 1010.00 1009.72 1009.40 1009.14 1008.88 1008.64 1008.30 1007.96 1007.65 1007.42 1007.10 1006.73 1006.32 1005.86 1005.44 1005.02 1004.74 1004.60 1004.17 1003.64 1002.74 1001.70 1001.61 1000.92 999.91 999.29 998.60 997.89 997.32 997.58 997.72 997.90 998.07 998.38 998.78
1011.22 1011.25 1011.19 1011.14 1010.99 1010.84 1010.66 1010.38 1010.17 1010.00 1009.83 1009.60 1009.37 1009.07 1008.78 1008.46 1008.22 1007.99 1007.75 1007.45 1006.99 1006.54 1006.12 1005.73 1005.33 1004.94 1004.52 1004.24 1003.82 1003.20 1002.37 1001.26 1000.25 999.36 998.74 997.85 997.14 997.41 997.54 997.62 997.74 998.11 998.76
Thickness
5809 5804 5800 5796 5792 5788 5782 5779 5777 5775 5770 5767 5765 5763 5764 5763 5762 5760 5756 5753 5746 5735 5726 5720 5721 5725 5726 5728 5724 5725 5720 5714 5718 5731 5734 5740 5737 5730 5738 5742 5740 5744 5750
5796 5793 5787 5783 5778 5774 5770 5767 5764 5763 5763 5761 5758 5755 5753 5753 5752 5751 5749 5745 5741 5735 5731 5723 5720 5719 5719 5722 5723 5722 5717 5715 5708 5716 5721 5723 5728 5729 5726 5731 5735 5739 5743
5785 5780 5775 5771 5766 5761 5758 5755 5751 5748 5751 5752 5750 5748 5748 5749 5748 5747 5745 5741 5737 5733 5729 5719 5717 5718 5717 5716 5713 5716 5713 5710 5705 5705 5716 5712 5716 5722 5721 5721 5725 5729 5733
5774 5770 5764 5759 5754 5749 5744 5741 5738 5735 5734 5734 5735 5735 5735 5735 5733 5732 5732 5732 5726 5721 5718 5716 5716 5712 5707 5708 5706 5708 5704 5700 5698 5698 5703 5702 5700 5706 5708 5708 5713 5718 5720
5762 5756 5751 5746 5741 5736 5732 5727 5723 5720 5717 5716 5718 5720 5720 5720 5721 5717 5715 5715 5715 5712 5710 5710 5711 5716 5713 5710 5706 5702 5696 5693 5692 5690 5693 5692 5692 5696 5697 5700 5703 5708 5710
5748 5742 5739 5735 5730 5725 5721 5716 5711 5707 5704 5701 5698 5698 5699 5704 5707 5702 5700 5702 5705 5703 5702 5703 5706 5707 5705 5705 5700 5696 5694 5690 5690 5686 5688 5689 5691 5694 5694 5696 5697 5697 5699
5734 5728 5724 5719 5715 5712 5709 5705 5700 5696 5694 5689 5686 5685 5686 5690 5691 5691 5691 5691 5692 5694 5695 5698 5699 5702 5702 5699 5697 5691 5688 5685 5685 5687 5685 5686 5689 5692 5689 5691 5689 5691 5694
5718 5712 5708 5704 5701 5700 5696 5693 5690 5685 5681 5676 5671 5671 5674 5682 5683 5681 5681 5683 5685 5688 5691 5693 5694 5697 5697 5695 5691 5688 5684 5683 5679 5678 5684 5687 5686 5684 5684 5684 5686 5685 5683
5706 5701 5698 5694 5690 5687 5685 5683 5681 5677 5673 5671 5667 5668 5669 5676 5676 5673 5669 5674 5679 5682 5685 5686 5689 5691 5691 5685 5679 5677 5676 5673 5676 5673 5675 5676 5677 5676 5678 5677 5674 5672 5671
5697 5693 5689 5683 5680 5678 5676 5674 5673 5671 5669 5668 5668 5666 5667 5671 5673 5669 5664 5665 5669 5673 5677 5681 5681 5682 5679 5676 5673 5669 5663 5667 5665 5665 5666 5666 5667 5667 5665 5669 5668 5669 5667
5691 5686 5680 5675 5671 5670 5666 5665 5665 5666 5664 5662 5662 5662 5663 5664 5668 5664 5660 5659 5662 5664 5667 5671 5674 5672 5670 5667 5666 5668 5668 5662 5658 5661 5663 5659 5659 5659 5661 5662 5662 5663 5661
5682 5675 5670 5667 5664 5661 5656 5655 5655 5655 5655 5655 5656 5660 5661 5660 5659 5659 5656 5654 5656 5659 5662 5665 5670 5667 5663 5661 5661 5664 5660 5663 5660 5658 5656 5655 5655 5655 5655 5654 5653 5652 5655
5673 5668 5664 5660 5656 5654 5652 5652 5651 5649 5648 5648 5648 5650 5652 5651 5653 5650 5651 5650 5650 5651 5655 5658 5658 5658 5657 5658 5659 5656 5656 5660 5659 5654 5654 5653 5653 5652 5651 5648 5645 5644 5644
5666 5661 5657 5652 5650 5650 5648 5646 5645 5644 5644 5642 5641 5640 5645 5646 5649 5648 5647 5646 5647 5647 5650 5653 5656 5656 5656 5657 5654 5653 5656 5657 5654 5651 5650 5652 5649 5650 5648 5645 5641 5640 5635
5656 5653 5651 5648 5645 5643 5640 5637 5639 5638 5632 5629 5625 5624 5629 5632 5637 5634 5635 5643 5646 5649 5651 5653 5653 5653 5655 5657 5655 5654 5655 5653 5652 5651 5650 5649 5646 5645 5648 5646 5641 5638 5635
5645 5644 5643 5641 5637 5635 5633 5633 5629 5626 5625 5621 5616 5614 5620 5620 5626 5631 5635 5639 5642 5647 5650 5652 5652 5654 5655 5653 5653 5653 5652 5652 5653 5653 5650 5648 5645 5644 5645 5645 5645 5639 5638
5637 5634 5635 5631 5628 5626 5625 5626 5627 5626 5620 5619 5615 5613 5614 5618 5627 5633 5639 5643 5644 5648 5651 5652 5651 5651 5651 5649 5647 5650 5649 5651 5651 5652 5649 5646 5645 5644 5641 5641 5642 5645 5641
5629 5624 5627 5621 5617 5615 5614 5613 5613 5615 5617 5617 5617 5612 5614 5617 5623 5629 5637 5642 5647 5647 5649 5650 5650 5650 5648 5646 5645 5646 5645 5646 5647 5648 5645 5644 5648 5647 5643 5642 5643 5644 5642
5621 5617 5615 5611 5607 5605 5605 5604 5603 5603 5603 5603 5605 5608 5608 5610 5614 5620 5624 5631 5639 5641 5645 5646 5648 5647 5646 5646 5646 5646 5646 5647 5648 5648 5647 5645 5647 5647 5646 5644 5645 5641 5642
5610 5604 5603 5601 5597 5597 5596 5595 5593 5593 5592 5591 5592 5591 5595 5602 5605 5604 5606 5609 5611 5614 5620 5633 5642 5645 5645 5645 5646 5645 5646 5645 5648 5647 5644 5644 5644 5648 5650 5650 5648 5646 5645
5600 5597 5592 5594 5592 5588 5586 5586 5582 5580 5579 5579 5578 5577 5578 5584 5586 5587 5589 5591 5594 5598 5601 5608 5615 5624 5639 5643 5643 5643 5644 5643 5644 5647 5645 5645 5645 5644 5650 5652 5653 5651 5650
5588 5585 5583 5580 5579 5577 5576 5577 5577 5576 5574 5569 5568 5567 5567 5571 5572 5573 5575 5579 5580 5584 5585 5589 5595 5599 5605 5614 5622 5635 5641 5640 5641 5642 5644 5644 5648 5647 5646 5652 5652 5652 5651
5577 5574 5571 5569 5565 5563 5565 5563 5562 5561 5563 5562 5562 5562 5560 5557 5558 5560 5561 5562 5565 5567 5570 5574 5580 5586 5589 5595 5600 5606 5612 5618 5626 5639 5641 5643 5646 5647 5647 5648 5651 5650 5650
5567 5563 5559 5556 5553 5552 5550 5549 5549 5545 5547 5549 5549 5548 5548 5547 5548 5547 5548 5551 5554 5556 5557 5559 5563 5566 5570 5575 5579 5586 5594 5600 5608 5618 5631 5637 5639 5639 5645 5646 5646 5646 5648
5557 5552 5549 5546 5543 5540 5539 5537 5536 5535 5534 5533 5532 5532 5533 5533 5533 5534 5534 5536 5539 5543 5546 5549 5550 5550 5553 5557 5565 5574 5578 5587 5598 5605 5615 5626 5632 5633 5636 5639 5641 5641 5641
5549 5544 5540 5536 5533 5530 5527 5525 5524 5521 5519 5517 5516 5516 5516 5516 5517 5518 5518 5520 5523 5526 5529 5532 5535 5538 5541 5543 5548 5554 5561 5571 5583 5592 5603 5615 5623 5625 5628 5631 5634 5634 5631